Theta_e
321 321 321 321 320 320 320 320 321 322 322 323 324 325 326 327 326 329 323 330 336 353 346 334 336 331 332 328 330 333 322 314 317 317 321 335 332 338 340 336 339 341 341 347 352
321 320 320 320 320 320 320 320 320 320 321 322 323 325 327 327 326 321 343 347 353 354 329 327 326 325 325 323 328 325 321 317 323 322 321 330 334 334 335 334 337 339 346 351 350
321 320 320 320 320 320 320 319 319 320 320 321 323 325 327 329 321 320 350 355 355 345 328 328 328 324 321 323 323 323 319 322 323 326 325 325 331 336 333 331 336 337 344 348 346
320 320 320 320 320 319 319 319 319 319 319 320 323 326 328 328 309 324 347 350 355 335 328 326 325 321 320 318 321 318 321 322 323 325 324 324 329 329 334 334 340 341 347 348 345
320 320 319 319 319 319 319 319 318 318 319 321 324 326 327 316 316 325 350 343 331 327 326 324 321 321 318 319 320 319 320 321 323 322 324 328 327 329 331 339 342 344 347 347 347
319 319 319 318 318 318 319 318 318 317 319 322 324 327 322 311 323 325 325 327 327 326 323 324 322 322 320 319 319 320 321 321 322 322 323 324 325 332 333 340 341 343 344 346 347
319 318 318 318 318 318 318 317 317 317 320 322 326 328 315 315 323 325 323 326 326 325 322 324 324 322 321 319 321 320 317 320 320 321 320 324 321 325 333 338 339 341 344 345 347
318 318 317 317 316 317 316 316 316 318 321 324 327 325 311 319 322 321 324 325 328 326 326 326 326 322 321 322 320 317 317 313 317 318 323 322 314 325 333 335 335 339 342 343 346
318 318 317 317 316 316 315 315 317 321 323 325 325 317 310 323 317 322 325 323 323 323 325 323 323 321 321 317 315 315 310 310 312 319 319 320 316 327 334 333 333 338 340 342 345
318 318 317 316 315 314 314 316 318 321 324 326 323 315 315 313 319 321 325 324 320 321 320 320 321 319 318 315 308 309 309 310 310 315 316 316 316 322 331 333 335 337 338 340 343
317 317 317 315 314 314 315 321 318 315 317 311 310 311 315 318 322 319 324 321 320 319 315 318 315 313 314 313 313 312 310 310 312 315 316 317 318 323 329 332 332 333 334 334 337
317 317 316 313 313 313 318 316 316 317 312 316 313 312 315 316 314 318 322 316 315 313 316 314 311 317 314 312 312 312 310 310 312 315 316 316 317 323 325 328 329 329 332 333 333
316 316 315 312 313 314 318 317 323 323 314 313 316 314 315 318 314 315 319 317 314 313 313 312 313 315 312 312 311 312 310 310 309 313 318 317 315 319 324 327 331 333 334 335 335
316 315 314 312 309 319 314 319 322 325 309 309 313 316 317 318 312 319 319 317 314 312 313 313 316 311 312 311 312 308 312 311 310 310 307 315 308 317 321 323 327 331 331 331 336
315 314 313 310 318 316 320 326 323 321 298 310 313 321 318 314 314 313 320 317 312 311 313 310 311 311 310 312 313 310 312 311 311 311 310 313 310 316 322 319 323 326 327 332 334
314 313 311 313 319 323 326 323 319 307 299 307 313 312 311 313 312 313 315 319 317 312 313 313 315 313 314 314 314 314 313 312 312 311 305 311 311 312 316 319 323 326 328 331 334
312 311 311 320 319 325 324 317 307 301 311 307 308 312 311 309 310 311 311 311 309 305 307 310 312 315 315 312 315 313 310 303 302 303 303 312 310 314 319 323 325 325 328 331 336
309 309 313 320 326 322 320 313 302 305 309 312 311 311 308 310 310 310 309 308 312 310 309 305 304 312 316 313 313 313 311 305 298 301 305 312 307 315 323 326 327 328 329 333 335
309 321 322 323 322 322 317 306 309 312 314 310 310 307 308 309 309 309 309 308 311 312 308 307 308 315 315 317 317 312 308 313 307 309 305 309 313 321 324 324 325 327 330 332 335
324 325 322 324 322 321 314 303 311 314 315 315 307 309 305 307 308 309 309 312 310 314 316 312 308 314 315 317 316 314 316 308 309 301 300 307 308 313 320 322 325 326 328 334 338
325 319 319 322 322 319 309 309 311 317 317 313 312 308 309 308 310 309 310 312 314 313 315 314 312 311 316 314 312 312 312 313 312 309 304 303 308 321 322 325 325 326 332 337 338
324 315 321 324 315 318 311 312 306 314 317 315 316 315 311 311 310 310 310 313 315 315 310 315 313 311 311 315 316 317 314 314 308 308 310 307 307 324 326 327 327 328 337 342 343
325 321 325 324 309 310 313 312 313 312 314 317 316 318 315 311 309 312 312 315 317 315 315 315 311 308 309 313 316 314 315 315 314 312 308 305 308 325 327 327 327 331 340 344 345
324 314 318 320 319 313 311 311 311 316 315 318 318 318 315 311 315 312 312 316 316 317 323 318 314 311 305 309 314 310 312 313 313 308 308 309 310 316 321 325 326 336 341 342 344
324 321 319 311 313 315 315 313 311 313 319 321 318 318 315 312 313 314 316 316 317 317 318 317 312 313 312 312 311 310 310 310 310 310 308 309 311 318 324 325 327 339 341 340 341
319 320 322 322 318 317 310 315 315 317 317 317 317 318 319 316 316 314 316 317 315 318 318 319 313 314 310 311 312 310 312 312 311 312 312 314 314 326 328 329 331 338 338 338 339
323 324 320 313 319 316 317 318 316 318 319 320 319 319 317 316 320 322 323 321 319 318 316 317 316 313 309 312 311 308 312 310 311 315 316 312 323 328 327 327 334 337 338 338 338
Wind_Speed
11 11 11 12 12 11 11 11 12 13 13 14 16 16 16 16 20 7 9 5 2 8 5 5 7 3 6 3 4 2 3 7 8 4 5 2 3 1 1 4 4 5 2 11 20
11 11 11 12 12 11 11 11 11 12 14 14 16 16 15 15 9 11 5 4 3 7 7 6 3 5 4 1 2 4 3 7 5 4 5 2 5 3 4 3 4 6 8 18 20
12 12 12 13 12 12 11 11 11 12 13 14 16 16 16 16 11 2 8 6 9 7 10 6 5 6 2 0 1 2 4 7 6 6 6 3 3 4 2 3 2 7 13 18 20
12 12 12 13 13 12 11 11 11 12 12 14 15 16 17 7 4 5 7 5 6 11 9 5 6 4 2 1 1 5 3 5 7 6 6 6 5 3 6 2 2 4 15 19 21
13 12 13 12 12 12 11 11 11 12 12 13 14 14 9 9 9 5 2 3 6 8 8 5 4 3 4 1 4 7 6 7 8 9 7 6 8 6 4 3 3 10 15 18 18
13 13 13 12 11 11 11 11 11 11 12 13 13 17 8 11 6 2 3 4 7 8 6 6 1 4 1 2 4 7 10 10 8 8 4 8 5 3 5 3 7 12 15 15 18
13 13 14 13 12 11 11 11 11 10 12 11 11 7 8 8 2 3 3 4 3 4 7 3 2 7 2 5 5 5 11 8 3 6 4 5 10 8 3 5 8 11 12 14 16
14 14 14 13 12 11 10 10 10 11 10 10 8 7 7 3 3 9 7 8 6 4 4 2 4 3 5 2 4 6 6 6 3 6 3 8 8 5 1 3 5 8 9 11 14
14 15 15 12 11 10 9 10 11 11 9 8 8 6 5 5 9 7 9 9 8 6 4 3 6 3 6 7 8 5 4 5 1 5 4 4 10 10 3 3 4 7 8 9 10
15 15 14 11 10 8 8 11 1 6 6 6 4 7 7 6 5 5 7 6 6 7 8 9 8 10 8 9 5 4 6 5 5 7 7 7 11 5 3 3 2 3 3 6 8
15 15 13 9 8 6 8 6 7 8 9 5 1 5 6 2 5 8 8 10 7 9 13 9 11 14 1 4 5 8 9 8 3 5 7 6 11 5 2 2 3 3 3 4 5
15 15 11 9 7 5 7 6 5 7 5 12 8 8 7 4 10 11 9 11 10 12 6 9 13 4 1 3 7 10 10 8 1 1 6 8 11 2 1 1 3 5 5 4 4
15 14 11 8 4 5 7 4 1 5 7 7 6 6 3 9 11 15 14 11 11 10 13 14 4 6 4 8 10 12 9 7 6 3 5 8 11 3 4 3 2 0 2 4 4
15 14 10 6 5 4 6 4 5 5 7 9 9 6 8 6 8 9 15 11 6 12 8 12 7 8 8 8 6 15 3 5 5 7 7 3 3 5 2 2 4 1 6 6 7
16 15 9 9 4 6 6 4 5 6 6 9 8 6 6 7 15 10 8 9 10 9 9 10 11 13 10 9 3 4 2 5 5 11 7 7 8 9 0 2 4 5 4 6 6
18 15 7 6 5 5 3 3 6 9 4 9 9 12 13 9 7 13 13 9 3 6 11 5 2 5 11 2 6 3 9 9 8 11 12 8 6 12 5 7 4 4 3 5 7
18 11 7 2 3 0 4 6 8 7 4 9 12 12 15 10 10 17 15 15 10 11 12 15 13 10 9 13 9 11 13 10 9 9 1 6 7 11 6 6 4 2 3 3 7
18 5 9 5 2 5 6 8 7 4 4 5 7 13 13 13 11 12 15 14 12 9 9 12 16 15 12 14 11 16 15 8 5 5 3 7 4 8 6 6 4 2 2 2 6
12 5 4 3 8 5 8 8 1 5 2 8 12 14 12 13 5 11 13 13 14 14 7 9 3 5 3 6 11 8 10 6 7 4 9 4 3 10 7 6 6 7 4 4 6
4 4 4 2 7 7 8 3 1 1 4 6 9 12 14 18 12 12 12 12 15 14 14 2 5 3 8 8 4 9 6 10 7 3 6 6 3 4 6 7 8 6 4 5 5
6 5 5 6 6 7 8 2 3 2 3 3 7 9 11 16 14 15 14 9 14 16 12 9 7 9 7 6 8 7 11 5 8 6 8 6 7 10 5 6 8 5 3 7 7
5 3 6 4 7 4 7 5 2 7 5 5 5 8 10 15 15 11 9 3 6 10 13 13 6 6 7 4 1 6 5 9 6 6 3 8 4 8 7 7 7 5 6 8 8
3 3 5 5 7 7 7 8 6 8 6 3 6 9 9 11 12 12 8 5 8 11 10 11 8 8 10 11 7 5 0 5 8 8 10 8 4 7 8 9 5 5 8 8 9
5 5 5 6 4 9 5 9 9 6 10 6 4 5 10 10 9 11 8 5 11 6 6 11 7 10 2 5 3 4 6 4 11 10 11 9 10 6 5 7 7 7 7 8 9
2 2 5 7 10 9 4 3 8 6 7 5 6 12 14 11 13 9 11 10 8 6 7 12 6 5 2 6 1 2 5 5 9 10 10 11 7 7 4 7 7 9 9 8 9
5 5 2 2 4 7 7 7 9 6 4 7 7 8 11 8 12 13 11 10 8 10 10 7 5 6 8 6 6 8 10 10 10 8 8 11 10 5 5 7 9 9 9 9 9
2 2 5 6 6 7 5 5 5 2 4 1 5 11 12 9 9 10 8 7 7 6 5 4 7 7 9 6 6 12 9 6 7 6 7 9 9 5 7 9 10 9 8 9 9
Wind_Direction
346 342 338 334 328 324 321 320 323 324 322 322 325 326 323 323 302 232 264 29 62 138 202 145 187 210 207 235 245 232 264 70 60 48 55 93 222 79 333 156 198 153 49 115 149
344 340 337 331 326 321 317 315 317 317 317 322 322 322 318 324 278 262 24 353 180 162 236 253 210 196 192 150 218 284 327 34 356 23 31 106 232 131 217 163 166 136 102 127 152
344 339 332 330 324 318 313 312 312 313 316 320 321 320 315 311 266 147 16 318 215 247 265 285 267 263 222 182 72 42 344 335 356 338 322 349 217 186 257 221 304 185 153 155 161
342 338 330 326 321 316 311 309 310 312 314 316 319 317 312 260 248 88 333 336 201 229 239 256 243 233 261 221 44 274 294 325 323 343 296 291 320 246 234 4 36 162 160 167 173
343 336 330 323 319 312 309 307 307 309 311 315 319 317 288 229 251 78 280 195 193 201 227 235 252 234 225 261 193 251 335 300 308 308 277 275 266 299 286 204 188 144 163 177 182
344 336 332 325 318 311 305 303 303 305 307 314 317 310 253 246 91 103 357 211 234 213 194 220 282 333 222 252 291 334 308 297 302 307 290 272 293 273 122 143 174 166 173 183 188
343 336 331 326 319 309 302 299 298 298 301 309 311 295 253 259 99 231 285 211 183 238 190 174 264 267 311 192 5 304 301 283 285 344 299 270 248 240 8 186 168 175 179 184 189
340 334 331 327 320 306 300 295 290 290 294 293 290 257 261 131 273 254 234 202 209 237 264 250 251 277 314 296 212 294 266 304 86 336 59 254 288 104 118 211 198 178 180 191 194
337 331 330 329 321 305 296 290 285 281 275 263 241 254 241 137 220 204 204 198 167 163 157 201 233 277 217 250 228 216 325 321 89 51 336 258 307 85 31 237 240 174 183 195 200
335 328 325 330 320 307 295 280 82 217 208 214 262 235 227 178 140 157 178 213 187 158 163 211 219 230 214 238 272 350 313 323 330 7 314 294 276 94 32 271 209 183 201 201 219
335 331 333 334 320 311 280 174 196 178 210 257 122 295 116 88 182 189 176 187 196 210 205 199 227 221 265 351 318 304 288 290 338 21 301 311 306 34 38 214 244 271 259 275 248
334 333 339 344 314 302 267 248 14 359 212 217 246 269 256 301 171 166 193 200 203 201 200 198 227 167 53 251 254 258 279 268 301 318 287 307 298 329 262 116 325 335 315 317 293
334 333 330 343 312 233 242 263 33 312 251 152 193 240 217 203 189 176 200 202 206 200 204 227 116 108 227 215 240 241 269 310 316 333 235 300 252 229 170 213 182 210 14 19 7
333 329 322 330 264 147 220 169 241 294 236 133 184 157 170 223 169 146 205 192 200 216 200 237 141 217 223 240 261 265 143 293 287 278 336 338 348 93 107 232 210 208 28 354 18
330 324 308 254 348 219 71 303 231 219 190 149 141 116 162 222 123 176 177 195 210 195 218 198 212 213 233 240 238 330 334 289 287 266 271 169 264 96 150 131 178 69 50 39 28
327 323 295 181 224 282 280 221 223 229 125 151 144 177 178 194 161 144 183 228 351 185 219 233 127 242 246 256 230 325 247 234 242 263 245 91 297 104 64 44 140 98 56 54 36
324 311 232 257 71 344 253 205 216 266 145 153 176 178 191 170 155 171 184 193 199 197 200 210 216 219 235 243 198 234 244 237 215 208 62 96 254 56 72 86 75 7 48 23 14
325 260 194 273 293 292 208 220 245 75 167 138 175 181 193 166 159 184 188 202 218 256 196 203 198 207 197 239 263 208 254 269 224 228 129 138 261 80 62 94 94 39 39 33 18
315 184 212 169 212 254 234 220 53 114 90 165 161 177 188 184 191 187 202 210 196 214 243 189 173 121 237 225 242 147 221 321 289 203 255 72 142 130 107 142 131 93 93 48 13
268 214 106 94 182 233 239 289 188 358 342 214 196 200 182 185 198 205 181 201 203 201 250 98 174 154 139 177 179 284 104 203 212 260 273 107 264 28 127 143 139 129 107 85 80
242 218 64 152 198 223 229 221 281 240 267 260 220 192 209 179 206 195 175 139 202 188 215 229 273 138 186 225 158 175 213 234 306 317 316 276 76 78 106 144 151 117 108 95 92
290 196 135 223 215 231 220 217 22 260 213 267 261 265 215 180 201 193 188 74 172 162 202 215 261 195 94 86 298 291 357 267 269 169 226 303 307 70 112 129 138 113 99 82 81
303 97 166 267 225 208 205 250 253 262 260 218 228 229 210 205 202 207 179 112 175 200 195 170 239 170 170 170 183 247 97 316 282 281 282 297 341 103 127 144 132 109 119 106 99
270 171 156 217 291 279 210 229 236 206 262 255 258 228 195 194 209 196 208 161 183 215 350 216 244 262 16 22 69 193 229 258 287 283 297 272 298 136 98 172 162 126 121 102 100
239 62 2 183 205 221 218 279 231 235 215 225 199 230 196 190 190 188 167 146 174 156 199 226 203 237 65 102 152 257 270 261 268 288 288 312 308 17 37 175 157 127 126 119 105
321 315 190 286 191 219 187 225 240 198 241 175 250 198 203 227 205 182 185 185 172 186 183 220 141 180 178 187 230 260 277 271 267 269 261 269 266 62 115 139 164 146 138 126 112
34 219 278 141 194 228 207 224 191 246 124 75 142 139 125 91 61 74 75 91 79 169 130 231 147 202 252 183 254 259 261 287 280 265 278 272 57 128 144 159 157 149 146 131 124